STARLINK-1215, 45225

Orbit data source: Space-Track

STARLINK-1215, 45225 is a payload satellite owned by SpaceX/Seattle (US) in LEO that was launched on Mon, 17 Feb 2020 UTC via an FALCON 9 launch vehicle from the Air Force Eastern Test Range (AFETR). Payload-class satellites include a variety of spacecraft equipped with specific instruments for various scientific and technological missions. These include communications satellites like Starlink; space stations such as the ISS; scientific satellites like the Hubble; Earth observation satellites from companies like Planet Labs, Umbra, and HawkEye 360; GPS; miniature CubeSats for education and research; and military/defense satellites.

Loading next visibility...
Identifier
45225, 2020-012AZ
Orbit
LEO
Country
Flag of USUS
Related business
Manufacturer
SpaceX/Seattle
Mission
Partially operational Commercial Communications
Bus & Motor
STARLINK, Unknown motor
Mass
260 kg wet, ~248 kg dry
Launch date (UTC)
2020-02-17 (6 years ago)
Launch vehicle
FALCON 9
Launch site
Air Force Eastern Test Range (AFETR)
Object type
Payload
Rocket body
Debris
Shape & HBR
Box + 1 Pan, 10.1 m
Radar Cross Section
13.562 m², Large (>1 m²)

Expand to show TLE details & history
Last TLE update: 19 hours ago

TLE from 19 hours ago
0 STARLINK-1215
1 45225U 20012AZ  26124.22071834  .00049841  00000-0  15727-2 0  9995
2 45225  53.1571 100.1684 0002632  86.3913 273.7389 15.32392185343980
Epoch: 2026-05-04T05:17Z
TLE epoch observation values (Epoch: 2026-05-04T05:17:50.064Z)
Latitude
-0.00008°
Longitude
158.59671°
Altitude
469.461 km
Speed
7.633 km/s
True Right ascension
06h 40m 40s
True Declination
0° 00' 00"
Sunlit
Object was in daylight at epoch
Visualization orbit readout
Latitude
Unknown
Longitude
Unknown
Altitude
Unknown
Speed
Unknown
Apparent Right ascension
Unknown
Apparent Declination
Unknown
Sunlit
N/A
Visualization observer readout
Local Sidereal Time
07:39:54
Azimuth
Unknown
Elevation
Unknown
Doppler factor
Unknown
Orbital elements
Apogee altitude
470.737 km
Perigee altitude
467.132 km
Semi-major axis
6,847.072 km
Eccentricity
0.00026
Inclination
53.1571°
RAAN
100.1684°
Arg. of periapsis
86.3913°
True anomaly
273.7088°
Mean anomaly
273.7389°
Eccentric anomaly
273.72385°
Mean motion
3.83077 °/min
Orbital period
93.98 mins
BSTAR
0.0015727
Loading maneuver chart data...
Computing Atmospheric mass density...
Loading historical data...
Loading historical data...
Loading historical data...
Loading historical data...
Loading historical data...
Loading historical data...
Loading historical data...

Documentation

Showing up to 5 results
|